Weather History for North Bend, OR

Change the Weather History Date:

Thursday, February 20, 2014

  Actual Average Record
Temperature  
Mean Temperature 48 °F 47 °F  
Max Temperature 50 °F 53 °F 69 °F (1988)
Min Temperature 45 °F 40 °F 25 °F (2006)
Degree Days  
Heating Degree Days 17 18  
Month to date heating degree days 333 377  
Since 1 July heating degree days 2686 3032  
Cooling Degree Days 0 0  
Month to date cooling degree days 0 0  
Year to date cooling degree days 0 0  
Moisture  
Dew Point 47 °F    
Average Humidity 99    
Maximum Humidity 100    
Minimum Humidity 92    
Precipitation  
Precipitation 0.07 in 0.27 in 1.72 in (1984)
Month to date precipitation 7.90 5.40  
Year to date precipitation 10.59 15.59  
Sea Level Pressure  
Sea Level Pressure 30.32 in    
Wind  
Wind Speed 6 mph (South)    
Max Wind Speed 10 mph    
Max Gust Speed -    
Visibility 8 miles    
Events      
T = Trace of Precipitation, MM = Missing Value Source: NWS Daily Summary

Daily Weather History Graph

Daily Weather History Graph

Search for Another Location

Airport:

Trip Planner

Search our weather history database for the weather conditions in past years. The results will help you decide how hot, cold, wet, or windy it might be!

Date:

Astronomy

Feb. 20, 2014 Rise Set
Actual Time 7:07 AM PST 5:54 PM PST
Civil Twilight 6:38 AM PST 6:23 PM PST
Nautical Twilight 6:05 AM PST 6:56 PM PST
Astronomical Twilight 5:32 AM PST 7:29 PM PST
Moon No Moon Rise 9:43 AM PST (2/20)
Length of Visible Light 11h 45m
Length of Day
10h 46m
Waning Gibbous, 70% of the Moon is Illuminated
Feb 20
Waning Gibbous
Feb 22
Last Quarter
Mar 1
New
Mar 8
First Quarter
Mar 16
Full

Hourly Weather History & Observations

Time (PST) Temp. Windchill Dew Point Humidity Pressure Visibility Wind Dir Wind Speed Gust Speed Precip Events Conditions
12:15 AM 44.6 °F 40.2 °F 44.6 °F 100% 30.33 in 10.0 mi SSE 8.1 mph - N/A   Overcast
12:35 AM 44.6 °F 39.7 °F 44.6 °F 100% 30.33 in 10.0 mi SSE 9.2 mph - N/A   Mostly Cloudy
12:55 AM 44.6 °F 39.7 °F 44.6 °F 100% 30.33 in 10.0 mi SSE 9.2 mph - N/A   Overcast
1:15 AM 44.6 °F 39.2 °F 44.6 °F 100% 30.33 in 10.0 mi SSE 10.4 mph - N/A   Overcast
1:35 AM 44.6 °F 39.2 °F 44.6 °F 100% 30.33 in 10.0 mi SSE 10.4 mph - N/A   Overcast
1:55 AM 44.6 °F 39.2 °F 42.8 °F 93% 30.33 in 10.0 mi SSE 10.4 mph - N/A   Overcast
2:15 AM 44.6 °F 39.7 °F 44.6 °F 100% 30.33 in 10.0 mi SSE 9.2 mph - N/A   Overcast
2:35 AM 44.6 °F 39.7 °F 44.6 °F 100% 30.34 in 9.0 mi SSE 9.2 mph - N/A   Overcast
2:55 AM 44.6 °F 39.7 °F 44.6 °F 100% 30.33 in 10.0 mi SSE 9.2 mph - N/A   Overcast
3:15 AM 44.6 °F 39.7 °F 44.6 °F 100% 30.33 in 8.0 mi SSE 9.2 mph - N/A   Overcast
3:35 AM 44.6 °F 40.7 °F 42.8 °F 93% 30.33 in 10.0 mi SSE 6.9 mph - N/A   Overcast
3:55 AM 44.6 °F 40.2 °F 42.8 °F 93% 30.32 in 10.0 mi SSE 8.1 mph - 0.01 in   Overcast
4:15 AM 44.6 °F 40.2 °F 42.8 °F 93% 30.32 in 10.0 mi SSE 8.1 mph - N/A   Overcast
4:35 AM 44.6 °F 40.7 °F 44.6 °F 100% 30.32 in 8.0 mi SSE 6.9 mph - N/A   Overcast
4:55 AM 44.6 °F 39.7 °F 44.6 °F 100% 30.33 in 10.0 mi SSE 9.2 mph - N/A   Overcast
5:15 AM 44.6 °F 39.2 °F 44.6 °F 100% 30.32 in 10.0 mi SSE 10.4 mph - N/A   Overcast
5:35 AM 44.6 °F 39.2 °F 42.8 °F 93% 30.32 in 10.0 mi SSE 10.4 mph - N/A   Overcast
5:55 AM 44.6 °F 39.2 °F 42.8 °F 93% 30.32 in 10.0 mi SSE 10.4 mph - N/A   Overcast
6:15 AM 44.6 °F 39.2 °F 44.6 °F 100% 30.32 in 10.0 mi SSE 10.4 mph - N/A   Overcast
6:35 AM 44.6 °F 39.2 °F 44.6 °F 100% 30.32 in 10.0 mi SSE 10.4 mph - N/A   Overcast
6:55 AM 44.6 °F 39.7 °F 44.6 °F 100% 30.32 in 10.0 mi SSE 9.2 mph - N/A   Overcast
7:15 AM 44.6 °F 40.2 °F 44.6 °F 100% 30.32 in 10.0 mi SSE 8.1 mph - N/A   Overcast
7:35 AM 44.6 °F 39.7 °F 44.6 °F 100% 30.32 in 8.0 mi SSE 9.2 mph - N/A   Overcast
7:55 AM 44.6 °F 40.2 °F 44.6 °F 100% 30.32 in 10.0 mi SSE 8.1 mph - N/A   Overcast
8:15 AM 44.6 °F 40.7 °F 44.6 °F 100% 30.33 in 10.0 mi SSE 6.9 mph - N/A   Overcast
8:35 AM 44.6 °F 40.7 °F 44.6 °F 100% 30.33 in 9.0 mi SSE 6.9 mph - N/A   Overcast
8:55 AM 46.4 °F 41.9 °F 44.6 °F 93% 30.33 in 10.0 mi SSE 9.2 mph - N/A   Overcast
9:15 AM 46.4 °F 42.4 °F 44.6 °F 93% 30.33 in 10.0 mi SSE 8.1 mph - N/A   Overcast
9:35 AM 46.4 °F 42.9 °F 46.4 °F 100% 30.33 in 10.0 mi SE 6.9 mph - N/A   Overcast
9:55 AM 46.4 °F 42.4 °F 46.4 °F 100% 30.33 in 10.0 mi SSE 8.1 mph - N/A   Overcast
10:15 AM 46.4 °F 42.4 °F 46.4 °F 100% 30.33 in 10.0 mi SSE 8.1 mph - N/A   Overcast
10:35 AM 48.2 °F - 46.4 °F 93% 30.34 in 10.0 mi South 5.8 mph - N/A   Overcast
10:55 AM 48.2 °F - 46.4 °F 93% 30.33 in 3.0 mi South 5.8 mph - N/A   Overcast
11:15 AM 48.2 °F - 48.2 °F 100% 30.34 in 9.0 mi SSW 3.5 mph - N/A   Overcast
11:35 AM 48.2 °F - 48.2 °F 100% 30.34 in 8.0 mi SSW 9.2 mph - N/A   Overcast
11:55 AM 50.0 °F - 48.2 °F 94% 30.34 in 10.0 mi SSW 5.8 mph - N/A   Overcast
12:15 PM 50.0 °F - 48.2 °F 94% 30.34 in 9.0 mi SSW 8.1 mph - N/A   Overcast
12:35 PM 50.0 °F - 48.2 °F 94% 30.33 in 10.0 mi SSW 9.2 mph - N/A   Overcast
12:55 PM 50.0 °F - 50.0 °F 100% 30.33 in 7.0 mi SSW 8.1 mph - N/A   Overcast
1:15 PM 50.0 °F - 50.0 °F 100% 30.32 in 10.0 mi SW 9.2 mph - N/A   Overcast
1:35 PM 50.0 °F - 50.0 °F 100% 30.32 in 4.0 mi WSW 11.5 mph - N/A   Overcast
1:55 PM 50.0 °F - 50.0 °F 100% 30.32 in 3.0 mi SW 6.9 mph - N/A   Overcast
2:15 PM 50.0 °F - 50.0 °F 100% 30.31 in 4.0 mi SW 6.9 mph - N/A   Overcast
2:35 PM 50.0 °F - 50.0 °F 100% 30.31 in 10.0 mi WSW 6.9 mph - N/A   Overcast
2:55 PM 50.0 °F - 50.0 °F 100% 30.31 in 9.0 mi WSW 8.1 mph - N/A   Overcast
3:15 PM 50.0 °F - 50.0 °F 100% 30.32 in 10.0 mi WSW 5.8 mph - N/A   Overcast
3:35 PM 50.0 °F - 50.0 °F 100% 30.32 in 8.0 mi SSW 5.8 mph - N/A   Overcast
3:55 PM 48.2 °F - 48.2 °F 100% 30.32 in 4.0 mi SSW 4.6 mph - 0.01 in   Overcast
4:15 PM 48.2 °F - 48.2 °F 100% 30.32 in 5.0 mi SW 4.6 mph - 0.01 in   Overcast
4:35 PM 48.2 °F - 48.2 °F 100% 30.31 in 10.0 mi WSW 3.5 mph - 0.01 in   Overcast
4:55 PM 50.0 °F - 50.0 °F 100% 30.31 in 8.0 mi West 4.6 mph - 0.02 in   Overcast
5:15 PM 48.2 °F - 48.2 °F 100% 30.31 in 3.0 mi WSW 3.5 mph - N/A   Overcast
5:35 PM 48.2 °F - 48.2 °F 100% 30.31 in 3.0 mi Calm Calm - 0.01 in   Overcast
5:55 PM 48.2 °F - 48.2 °F 100% 30.31 in 3.0 mi Calm Calm - 0.01 in   Overcast
6:15 PM 48.2 °F - 48.2 °F 100% 30.31 in 4.0 mi Calm Calm - N/A   Overcast
6:35 PM 48.2 °F - 48.2 °F 100% 30.31 in 4.0 mi SSE 4.6 mph - 0.01 in   Overcast
6:55 PM 48.2 °F - 48.2 °F 100% 30.32 in 5.0 mi Calm Calm - 0.02 in   Overcast
7:15 PM 48.2 °F - 48.2 °F 100% 30.32 in 10.0 mi Calm Calm - N/A   Overcast
7:35 PM 48.2 °F - 48.2 °F 100% 30.32 in 3.0 mi Calm Calm - N/A   Overcast
7:55 PM 48.2 °F - 46.4 °F 93% 30.31 in 10.0 mi Calm Calm - N/A   Mostly Cloudy
8:15 PM 48.2 °F - 48.2 °F 100% 30.32 in 7.0 mi Calm Calm - N/A   Overcast
8:35 PM 48.2 °F - 48.2 °F 100% 30.32 in 4.0 mi SSE 3.5 mph - 0.01 in   Overcast
8:55 PM 48.2 °F - 48.2 °F 100% 30.32 in 10.0 mi Calm Calm - 0.01 in   Overcast
9:15 PM 48.2 °F - 48.2 °F 100% 30.32 in 10.0 mi SE 3.5 mph - N/A   Overcast
9:35 PM 48.2 °F - 48.2 °F 100% 30.32 in 9.0 mi SE 4.6 mph - N/A   Overcast
9:55 PM 48.2 °F - 48.2 °F 100% 30.31 in 4.0 mi SE 3.5 mph - N/A   Overcast
10:15 PM 48.2 °F - 48.2 °F 100% 30.32 in 8.0 mi Calm Calm - N/A   Overcast
10:35 PM 48.2 °F - 48.2 °F 100% 30.32 in 3.0 mi SE 3.5 mph - N/A   Overcast
10:55 PM 48.2 °F - 48.2 °F 100% 30.32 in 4.0 mi Calm Calm - N/A   Overcast
11:15 PM 48.2 °F - 48.2 °F 100% 30.32 in 10.0 mi SE 3.5 mph - N/A   Overcast
11:35 PM 48.2 °F - 48.2 °F 100% 30.32 in 10.0 mi Calm Calm - N/A   Overcast
11:55 PM 48.2 °F - 48.2 °F 100% 30.32 in 7.0 mi Calm Calm - N/A   Overcast